User: anonymous   Login
Location: Austin, TX
(30.3000°N, 97.7500°W)
Time: 12:39:11
(UTC-05:00)
Language:

Cosmos 2082 Rocket - Orbit

View from above orbital plane
View from above orbital plane
View from above satellite
View from above satellite

Ground track
Ground track

The orbit data is extracted from the following two-line orbital elements,

1 20625U 90046B   17267.20412202  .00000278  00000-0  16926-3 0  9994
2 20625  70.9986 301.3239 0015853 311.1711  48.8043 14.14620692411833
Epoch (UTC): 24 September 2017 04:53:56
Eccentricity: 0.0015853
inclination: 70.9986°
perigee height: 832 km
apogee height: 855 km
right ascension of ascending node: 301.3239°
argument of perigee: 311.1711°
revolutions per day: 14.14620692
mean anomaly at epoch: 48.8043°
orbit number at epoch: 41183

The dashed part of the orbit path shows where the satellite is in the earth's shadow,  

DLR